Location: Newark
(52.1031°N, 9.3600°E)
Time: 11:20:06
(UTC+00:00)

UNISAT 6 - Visible Passes

Search period start: 15 December 2019 00:00
Search period end: 25 December 2019 00:00
Orbit: 608 x 688 km, 97.7° (Epoch: 14 December)

Date Brightness Start Highest point End Pass type
(mag) Time Alt. Az. Time Alt. Az. Time Alt. Az.
15 Dec ? 05:39:35 10° ESE 05:43:13 23° ENE 05:46:53 10° N visible
16 Dec ? 06:04:43 10° SE 06:08:57 35° ENE 06:13:14 10° N visible
17 Dec ? 04:57:41 10° ENE 04:59:03 11° NE 05:00:26 10° NNE visible
17 Dec ? 06:30:13 10° SSE 06:34:48 57° ENE 06:39:25 10° N visible
18 Dec ? 05:21:39 10° E 05:24:39 17° NE 05:27:39 10° NNE visible
19 Dec ? 05:46:29 10° ESE 05:50:20 26° ENE 05:54:11 10° N visible
20 Dec ? 06:11:44 10° SE 06:16:06 40° ENE 06:20:29 10° N visible
21 Dec ? 05:04:07 10° ENE 05:06:08 13° NE 05:08:07 10° NNE visible
21 Dec ? 06:37:19 10° SSE 06:41:58 66° ENE 06:46:38 10° N visible
22 Dec ? 05:28:27 10° ESE 05:31:44 19° ENE 05:35:01 10° NNE visible
23 Dec ? 05:53:25 10° ESE 05:57:27 29° ENE 06:01:28 10° N visible
24 Dec ? 06:18:46 10° SE 06:23:15 46° ENE 06:27:43 10° N visible
